Year,Month,Day,Hour,Minute,Value (Times are PST for temperature in C)
2008,07,19,00,00,13.70
2008,07,19,00,01,13.70
2008,07,19,00,02,13.70
2008,07,19,00,03,13.60
2008,07,19,00,04,13.60
2008,07,19,00,05,13.60
2008,07,19,00,06,13.60
2008,07,19,00,07,13.60
2008,07,19,00,08,13.60
2008,07,19,00,09,13.60
2008,07,19,00,10,13.50
2008,07,19,00,11,13.50
2008,07,19,00,12,13.50
2008,07,19,00,13,13.50
2008,07,19,00,14,13.40
2008,07,19,00,15,13.40
2008,07,19,00,16,13.40
2008,07,19,00,17,13.40
2008,07,19,00,18,13.40
2008,07,19,00,19,13.40
2008,07,19,00,20,13.40
2008,07,19,00,21,13.30
2008,07,19,00,22,13.30
2008,07,19,00,23,13.30
2008,07,19,00,24,13.30
2008,07,19,00,25,13.30
2008,07,19,00,26,13.30
2008,07,19,00,27,13.30
2008,07,19,00,28,13.30
2008,07,19,00,29,13.20
2008,07,19,00,30,13.20
2008,07,19,00,31,13.20
2008,07,19,00,32,13.20
2008,07,19,00,33,13.20
2008,07,19,00,34,13.20
2008,07,19,00,35,13.20
2008,07,19,00,36,13.10
2008,07,19,00,37,13.10
2008,07,19,00,38,13.10
2008,07,19,00,39,13.10
2008,07,19,00,40,13.10
2008,07,19,00,41,13.10
2008,07,19,00,42,13.10
2008,07,19,00,43,13.10
2008,07,19,00,44,13.10
2008,07,19,00,45,13.00
2008,07,19,00,46,13.00
2008,07,19,00,47,13.00
2008,07,19,00,48,13.00
2008,07,19,00,49,13.00
2008,07,19,00,50,13.00
2008,07,19,00,51,13.00
2008,07,19,00,52,12.90
2008,07,19,00,53,12.90
2008,07,19,00,54,12.90
2008,07,19,00,55,12.90
2008,07,19,00,56,12.90
2008,07,19,00,57,12.90
2008,07,19,00,58,12.90
2008,07,19,00,59,12.90
2008,07,19,01,00,12.90
2008,07,19,01,01,12.90
2008,07,19,01,02,12.90
2008,07,19,01,03,12.90
2008,07,19,01,04,12.90
2008,07,19,01,05,12.80
2008,07,19,01,06,12.90
2008,07,19,01,07,12.80
2008,07,19,01,08,12.80
2008,07,19,01,09,12.80
2008,07,19,01,10,12.80
2008,07,19,01,11,12.80
2008,07,19,01,12,12.80
2008,07,19,01,13,12.80
2008,07,19,01,14,12.80
2008,07,19,01,15,12.80
2008,07,19,01,16,12.80
2008,07,19,01,17,12.80
2008,07,19,01,18,12.80
2008,07,19,01,19,12.80
2008,07,19,01,20,12.80
2008,07,19,01,21,12.80
2008,07,19,01,22,12.80
2008,07,19,01,23,12.80
2008,07,19,01,24,12.80
2008,07,19,01,25,12.80
2008,07,19,01,26,12.70
2008,07,19,01,27,12.70
2008,07,19,01,28,12.70
2008,07,19,01,29,12.70
2008,07,19,01,30,12.70
2008,07,19,01,31,12.60
2008,07,19,01,32,12.60
2008,07,19,01,33,12.60
2008,07,19,01,34,12.60
2008,07,19,01,35,12.60
2008,07,19,01,36,12.60
2008,07,19,01,37,12.60
2008,07,19,01,38,12.60
2008,07,19,01,39,12.50
2008,07,19,01,40,12.50
2008,07,19,01,41,12.50
2008,07,19,01,42,12.50
2008,07,19,01,43,12.50
2008,07,19,01,44,12.40
2008,07,19,01,45,12.40
2008,07,19,01,46,12.40
2008,07,19,01,47,12.40
2008,07,19,01,48,12.40
2008,07,19,01,49,12.40
2008,07,19,01,50,12.40
2008,07,19,01,51,12.40
2008,07,19,01,52,12.30
2008,07,19,01,53,12.30
2008,07,19,01,54,12.30
2008,07,19,01,55,12.30
2008,07,19,01,56,12.30
2008,07,19,01,57,12.30
2008,07,19,01,58,12.30
2008,07,19,01,59,12.30
2008,07,19,02,00,12.30
2008,07,19,02,01,12.30
2008,07,19,02,02,12.30
2008,07,19,02,03,12.30
2008,07,19,02,04,12.30
2008,07,19,02,05,12.30
2008,07,19,02,06,12.30
2008,07,19,02,07,12.30
2008,07,19,02,08,12.20
2008,07,19,02,09,12.20
2008,07,19,02,10,12.20
2008,07,19,02,11,12.20
2008,07,19,02,12,12.20
2008,07,19,02,13,12.20
2008,07,19,02,14,12.20
2008,07,19,02,15,12.20
2008,07,19,02,16,12.10
2008,07,19,02,17,12.10
2008,07,19,02,18,12.10
2008,07,19,02,19,12.10
2008,07,19,02,20,12.10
2008,07,19,02,21,12.10
2008,07,19,02,22,12.10
2008,07,19,02,23,12.00
2008,07,19,02,24,12.00
2008,07,19,02,25,12.00
2008,07,19,02,26,12.00
2008,07,19,02,27,12.00
2008,07,19,02,28,12.00
2008,07,19,02,29,11.90
2008,07,19,02,30,11.90
2008,07,19,02,31,11.90
2008,07,19,02,32,11.90
2008,07,19,02,33,11.90
2008,07,19,02,34,11.90
2008,07,19,02,35,11.90
2008,07,19,02,36,11.90
2008,07,19,02,37,11.90
2008,07,19,02,38,11.90
2008,07,19,02,39,11.90
2008,07,19,02,40,11.90
2008,07,19,02,41,11.80
2008,07,19,02,42,11.80
2008,07,19,02,43,11.80
2008,07,19,02,44,11.80
2008,07,19,02,45,11.80
2008,07,19,02,46,11.80
2008,07,19,02,47,11.80
2008,07,19,02,48,11.70
2008,07,19,02,49,11.70
2008,07,19,02,50,11.70
2008,07,19,02,51,11.70
2008,07,19,02,52,11.70
2008,07,19,02,53,11.70
2008,07,19,02,54,11.70
2008,07,19,02,55,11.70
2008,07,19,02,56,11.60
2008,07,19,02,57,11.60
2008,07,19,02,58,11.60
2008,07,19,02,59,11.60
2008,07,19,03,00,11.60
2008,07,19,03,01,11.60
2008,07,19,03,02,11.60
2008,07,19,03,03,11.60
2008,07,19,03,04,11.60
2008,07,19,03,05,11.60
2008,07,19,03,06,11.60
2008,07,19,03,07,11.60
2008,07,19,03,08,11.60
2008,07,19,03,09,11.60
2008,07,19,03,10,11.60
2008,07,19,03,11,11.60
2008,07,19,03,12,11.60
2008,07,19,03,13,11.60
2008,07,19,03,14,11.60
2008,07,19,03,15,11.60
2008,07,19,03,16,11.60
2008,07,19,03,17,11.60
2008,07,19,03,18,11.60
2008,07,19,03,19,11.60
2008,07,19,03,20,11.60
2008,07,19,03,21,11.50
2008,07,19,03,22,11.50
2008,07,19,03,23,11.50
2008,07,19,03,24,11.50
2008,07,19,03,25,11.50
2008,07,19,03,26,11.50
2008,07,19,03,27,11.40
2008,07,19,03,28,11.40
2008,07,19,03,29,11.40
2008,07,19,03,30,11.40
2008,07,19,03,31,11.40
2008,07,19,03,32,11.40
2008,07,19,03,33,11.40
2008,07,19,03,34,11.40
2008,07,19,03,35,11.40
2008,07,19,03,36,11.40
2008,07,19,03,37,11.30
2008,07,19,03,38,11.30
2008,07,19,03,39,11.30
2008,07,19,03,40,11.30
2008,07,19,03,41,11.30
2008,07,19,03,42,11.30
2008,07,19,03,43,11.30
2008,07,19,03,44,11.30
2008,07,19,03,45,11.30
2008,07,19,03,46,11.30
2008,07,19,03,47,11.30
2008,07,19,03,48,11.30
2008,07,19,03,49,11.30
2008,07,19,03,50,11.30
2008,07,19,03,51,11.20
2008,07,19,03,52,11.20
2008,07,19,03,53,11.20
2008,07,19,03,54,11.20
2008,07,19,03,55,11.20
2008,07,19,03,56,11.20
2008,07,19,03,57,11.20
2008,07,19,03,58,11.20
2008,07,19,03,59,11.20
2008,07,19,04,00,11.10
2008,07,19,04,01,11.10
2008,07,19,04,02,11.10
2008,07,19,04,03,11.10
2008,07,19,04,04,11.10
2008,07,19,04,05,11.10
2008,07,19,04,06,11.10
2008,07,19,04,07,11.10
2008,07,19,04,08,11.10
2008,07,19,04,09,11.10
2008,07,19,04,10,11.10
2008,07,19,04,11,11.10
2008,07,19,04,12,11.10
2008,07,19,04,13,11.10
2008,07,19,04,14,11.00
2008,07,19,04,15,11.10
2008,07,19,04,16,11.00
2008,07,19,04,17,11.00
2008,07,19,04,18,11.00
2008,07,19,04,19,11.00
2008,07,19,04,20,11.00
2008,07,19,04,21,11.00
2008,07,19,04,22,11.00
2008,07,19,04,23,10.90
2008,07,19,04,24,10.90
2008,07,19,04,25,10.90
2008,07,19,04,26,10.90
2008,07,19,04,27,10.90
2008,07,19,04,28,10.90
2008,07,19,04,29,10.90
2008,07,19,04,30,10.90
2008,07,19,04,31,10.90
2008,07,19,04,32,10.90
2008,07,19,04,33,10.90
2008,07,19,04,34,10.90
2008,07,19,04,35,10.90
2008,07,19,04,36,10.90
2008,07,19,04,37,10.90
2008,07,19,04,38,10.90
2008,07,19,04,39,10.90
2008,07,19,04,40,10.90
2008,07,19,04,41,10.90
2008,07,19,04,42,10.90
2008,07,19,04,43,10.90
2008,07,19,04,44,10.90
2008,07,19,04,45,10.90
2008,07,19,04,46,10.90
2008,07,19,04,47,10.90
2008,07,19,04,48,10.90
2008,07,19,04,49,10.90
2008,07,19,04,50,10.90
2008,07,19,04,51,10.90
2008,07,19,04,52,10.90
2008,07,19,04,53,10.90
2008,07,19,04,54,10.90
2008,07,19,04,55,10.90
2008,07,19,04,56,10.90
2008,07,19,04,57,10.80
2008,07,19,04,58,10.80
2008,07,19,04,59,10.80
2008,07,19,05,00,10.80
2008,07,19,05,01,10.80
2008,07,19,05,02,10.80
2008,07,19,05,03,10.80
2008,07,19,05,04,10.80
2008,07,19,05,05,10.80
2008,07,19,05,06,10.80
2008,07,19,05,07,10.70
2008,07,19,05,08,10.70
2008,07,19,05,09,10.70
2008,07,19,05,10,10.70
2008,07,19,05,11,10.70
2008,07,19,05,12,10.70
2008,07,19,05,13,10.70
2008,07,19,05,14,10.60
2008,07,19,05,15,10.60
2008,07,19,05,16,10.60
2008,07,19,05,17,10.60
2008,07,19,05,18,10.60
2008,07,19,05,19,10.60
2008,07,19,05,20,10.60
2008,07,19,05,21,10.60
2008,07,19,05,22,10.60
2008,07,19,05,23,10.60
2008,07,19,05,24,10.60
2008,07,19,05,25,10.60
2008,07,19,05,26,10.60
2008,07,19,05,27,10.60
2008,07,19,05,28,10.70
2008,07,19,05,29,10.70
2008,07,19,05,30,10.70
2008,07,19,05,31,10.70
2008,07,19,05,32,10.70
2008,07,19,05,33,10.70
2008,07,19,05,34,10.70
2008,07,19,05,35,10.70
2008,07,19,05,36,10.70
2008,07,19,05,37,10.70
2008,07,19,05,38,10.70
2008,07,19,05,39,10.70
2008,07,19,05,40,10.70
2008,07,19,05,41,10.70
2008,07,19,05,42,10.70
2008,07,19,05,43,10.80
2008,07,19,05,44,10.80
2008,07,19,05,45,10.80
2008,07,19,05,46,10.80
2008,07,19,05,47,10.80
2008,07,19,05,48,10.90
2008,07,19,05,49,10.90
2008,07,19,05,50,10.90
2008,07,19,05,51,10.90
2008,07,19,05,52,10.90
2008,07,19,05,53,10.90
2008,07,19,05,54,10.90
2008,07,19,05,55,10.90
2008,07,19,05,56,10.90
2008,07,19,05,57,10.90
2008,07,19,05,58,10.90
2008,07,19,05,59,10.90
2008,07,19,06,00,10.90
2008,07,19,06,01,10.90
2008,07,19,06,02,10.90
2008,07,19,06,03,10.90
2008,07,19,06,04,10.90
2008,07,19,06,05,10.90
2008,07,19,06,06,10.90
2008,07,19,06,07,10.90
2008,07,19,06,08,10.90
2008,07,19,06,09,10.90
2008,07,19,06,10,10.90
2008,07,19,06,11,10.90
2008,07,19,06,12,10.90
2008,07,19,06,13,10.90
2008,07,19,06,14,10.90
2008,07,19,06,15,10.90
2008,07,19,06,16,10.90
2008,07,19,06,17,10.90
2008,07,19,06,18,10.90
2008,07,19,06,19,10.90
2008,07,19,06,20,10.90
2008,07,19,06,21,10.90
2008,07,19,06,22,10.90
2008,07,19,06,23,10.90
2008,07,19,06,24,10.90
2008,07,19,06,25,10.90
2008,07,19,06,26,10.90
2008,07,19,06,27,10.90
2008,07,19,06,28,10.90
2008,07,19,06,29,10.90
2008,07,19,06,30,10.90
2008,07,19,06,31,10.90
2008,07,19,06,32,10.90
2008,07,19,06,33,10.90
2008,07,19,06,34,10.90
2008,07,19,06,35,10.90
2008,07,19,06,36,10.90
2008,07,19,06,37,10.90
2008,07,19,06,38,10.90
2008,07,19,06,39,10.90
2008,07,19,06,40,10.90
2008,07,19,06,41,10.90
2008,07,19,06,42,10.90
2008,07,19,06,43,10.90
2008,07,19,06,44,10.90
2008,07,19,06,45,10.90
2008,07,19,06,46,10.90
2008,07,19,06,47,10.90
2008,07,19,06,48,10.90
2008,07,19,06,49,10.90
2008,07,19,06,50,10.90
2008,07,19,06,51,10.90
2008,07,19,06,52,10.90
2008,07,19,06,53,10.90
2008,07,19,06,54,10.90
2008,07,19,06,55,10.90
2008,07,19,06,56,10.90
2008,07,19,06,57,10.90
2008,07,19,06,58,11.00
2008,07,19,06,59,11.00
2008,07,19,07,00,11.00
2008,07,19,07,01,11.00
2008,07,19,07,02,11.00
2008,07,19,07,03,11.00
2008,07,19,07,04,11.00
2008,07,19,07,05,11.00
2008,07,19,07,06,11.00
2008,07,19,07,07,11.10
2008,07,19,07,08,11.10
2008,07,19,07,09,11.10
2008,07,19,07,10,11.10
2008,07,19,07,11,11.10
2008,07,19,07,12,11.10
2008,07,19,07,13,11.10
2008,07,19,07,14,11.10
2008,07,19,07,15,11.10
2008,07,19,07,16,11.10
2008,07,19,07,17,11.10
2008,07,19,07,18,11.10
2008,07,19,07,19,11.10
2008,07,19,07,20,11.10
2008,07,19,07,21,11.20
2008,07,19,07,22,11.20
2008,07,19,07,23,11.20
2008,07,19,07,24,11.20
2008,07,19,07,25,11.20
2008,07,19,07,26,11.20
2008,07,19,07,27,11.20
2008,07,19,07,28,11.20
2008,07,19,07,29,11.20
2008,07,19,07,30,11.20
2008,07,19,07,31,11.20
2008,07,19,07,32,11.20
2008,07,19,07,33,11.30
2008,07,19,07,34,11.30
2008,07,19,07,35,11.30
2008,07,19,07,36,11.30
2008,07,19,07,37,11.30
2008,07,19,07,38,11.30
2008,07,19,07,39,11.30
2008,07,19,07,40,11.30
2008,07,19,07,41,11.30
2008,07,19,07,42,11.30
2008,07,19,07,43,11.30
2008,07,19,07,44,11.30
2008,07,19,07,45,11.30
2008,07,19,07,46,11.30
2008,07,19,07,47,11.30
2008,07,19,07,48,11.30
2008,07,19,07,49,11.30
2008,07,19,07,50,11.30
2008,07,19,07,51,11.40
2008,07,19,07,52,11.40
2008,07,19,07,53,11.40
2008,07,19,07,54,11.40
2008,07,19,07,55,11.40
2008,07,19,07,56,11.40
2008,07,19,07,57,11.40
2008,07,19,07,58,11.40
2008,07,19,07,59,11.40
2008,07,19,08,00,11.40
2008,07,19,08,01,11.40
2008,07,19,08,02,11.40
2008,07,19,08,03,11.40
2008,07,19,08,04,11.50
2008,07,19,08,05,11.50
2008,07,19,08,06,11.50
2008,07,19,08,07,11.50
2008,07,19,08,08,11.60
2008,07,19,08,09,11.60
2008,07,19,08,10,11.60
2008,07,19,08,11,11.60
2008,07,19,08,12,11.70
2008,07,19,08,13,11.70
2008,07,19,08,14,11.70
2008,07,19,08,15,11.70
2008,07,19,08,16,11.80
2008,07,19,08,17,11.80
2008,07,19,08,18,11.80
2008,07,19,08,19,11.90
2008,07,19,08,20,11.90
2008,07,19,08,21,12.00
2008,07,19,08,22,12.00
2008,07,19,08,23,12.00
2008,07,19,08,24,12.10
2008,07,19,08,25,12.10
2008,07,19,08,26,12.20
2008,07,19,08,27,12.20
2008,07,19,08,28,12.20
2008,07,19,08,29,12.30
2008,07,19,08,30,12.30
2008,07,19,08,31,12.30
2008,07,19,08,32,12.40
2008,07,19,08,33,12.40
2008,07,19,08,34,12.40
2008,07,19,08,35,12.40
2008,07,19,08,36,12.50
2008,07,19,08,37,12.50
2008,07,19,08,38,12.50
2008,07,19,08,39,12.60
2008,07,19,08,40,12.60
2008,07,19,08,41,12.70
2008,07,19,08,42,12.70
2008,07,19,08,43,12.80
2008,07,19,08,44,12.80
2008,07,19,08,45,12.90
2008,07,19,08,46,12.90
2008,07,19,08,47,13.00
2008,07,19,08,48,13.00
2008,07,19,08,49,13.10
2008,07,19,08,50,13.20
2008,07,19,08,51,13.20
2008,07,19,08,52,13.30
2008,07,19,08,53,13.30
2008,07,19,08,54,13.30
2008,07,19,08,55,13.40
2008,07,19,08,56,13.40
2008,07,19,08,57,13.40
2008,07,19,08,58,13.50
2008,07,19,08,59,13.50
2008,07,19,09,00,13.60
2008,07,19,09,01,13.60
2008,07,19,09,02,13.70
2008,07,19,09,03,13.80
2008,07,19,09,04,13.80
2008,07,19,09,05,13.80
2008,07,19,09,06,13.80
2008,07,19,09,07,13.90
2008,07,19,09,08,13.90
2008,07,19,09,09,13.90
2008,07,19,09,10,13.90
2008,07,19,09,11,14.00
2008,07,19,09,12,14.00
2008,07,19,09,13,14.10
2008,07,19,09,14,14.10
2008,07,19,09,15,14.20
2008,07,19,09,16,14.30
2008,07,19,09,17,14.30
2008,07,19,09,18,14.30
2008,07,19,09,19,14.40
2008,07,19,09,20,14.40
2008,07,19,09,21,14.50
2008,07,19,09,22,14.60
2008,07,19,09,23,14.60
2008,07,19,09,24,14.70
2008,07,19,09,25,14.80
2008,07,19,09,26,14.80
2008,07,19,09,27,15.00
2008,07,19,09,28,15.00
2008,07,19,09,29,15.00
2008,07,19,09,30,15.00
2008,07,19,09,31,15.00
2008,07,19,09,32,15.20
2008,07,19,09,33,15.20
2008,07,19,09,34,15.30
2008,07,19,09,35,15.40
2008,07,19,09,36,15.40
2008,07,19,09,37,15.40
2008,07,19,09,38,15.50
2008,07,19,09,39,15.60
2008,07,19,09,40,15.60
2008,07,19,09,41,15.60
2008,07,19,09,42,15.70
2008,07,19,09,43,15.70
2008,07,19,09,44,15.80
2008,07,19,09,45,15.80
2008,07,19,09,46,15.80
2008,07,19,09,47,15.90
2008,07,19,09,48,15.90
2008,07,19,09,49,15.90
2008,07,19,09,50,16.00
2008,07,19,09,51,16.00
2008,07,19,09,52,16.10
2008,07,19,09,53,16.10
2008,07,19,09,54,16.20
2008,07,19,09,55,16.20
2008,07,19,09,56,16.20
2008,07,19,09,57,16.30
2008,07,19,09,58,16.30
2008,07,19,09,59,16.30
2008,07,19,10,00,16.30
2008,07,19,10,01,16.40
2008,07,19,10,02,16.40
2008,07,19,10,03,16.40
2008,07,19,10,04,16.50
2008,07,19,10,05,16.50
2008,07,19,10,06,16.50
2008,07,19,10,07,16.60
2008,07,19,10,08,16.60
2008,07,19,10,09,16.60
2008,07,19,10,10,16.70
2008,07,19,10,11,16.70
2008,07,19,10,12,16.70
2008,07,19,10,13,16.80
2008,07,19,10,14,16.80
2008,07,19,10,15,16.80
2008,07,19,10,16,16.90
2008,07,19,10,17,16.90
2008,07,19,10,18,17.00
2008,07,19,10,19,17.00
2008,07,19,10,20,17.00
2008,07,19,10,21,17.10
2008,07,19,10,22,17.10
2008,07,19,10,23,17.20
2008,07,19,10,24,17.20
2008,07,19,10,25,17.20
2008,07,19,10,26,17.30
2008,07,19,10,27,17.30
2008,07,19,10,28,17.30
2008,07,19,10,29,17.40
2008,07,19,10,30,17.40
2008,07,19,10,31,17.50
2008,07,19,10,32,17.50
2008,07,19,10,33,17.60
2008,07,19,10,34,17.60
2008,07,19,10,35,17.70
2008,07,19,10,36,17.70
2008,07,19,10,37,17.80
2008,07,19,10,38,17.90
2008,07,19,10,39,18.00
2008,07,19,10,40,18.20
2008,07,19,10,41,18.30
2008,07,19,10,42,18.40
2008,07,19,10,43,18.50
2008,07,19,10,44,18.50
2008,07,19,10,45,18.60
2008,07,19,10,46,18.60
2008,07,19,10,47,18.70
2008,07,19,10,48,18.70
2008,07,19,10,49,18.70
2008,07,19,10,50,18.80
2008,07,19,10,51,18.80
2008,07,19,10,52,18.90
2008,07,19,10,53,18.90
2008,07,19,10,54,19.00
2008,07,19,10,55,19.10
2008,07,19,10,56,19.20
2008,07,19,10,57,19.30
2008,07,19,10,58,19.40
2008,07,19,10,59,19.50
2008,07,19,11,00,19.60
2008,07,19,11,01,19.70
2008,07,19,11,02,19.80
2008,07,19,11,03,19.90
2008,07,19,11,04,20.00
2008,07,19,11,05,20.20
2008,07,19,11,06,20.30
2008,07,19,11,07,20.40
2008,07,19,11,08,20.40
2008,07,19,11,09,20.50
2008,07,19,11,10,20.60
2008,07,19,11,11,20.70
2008,07,19,11,12,20.70
2008,07,19,11,13,20.80
2008,07,19,11,14,20.80
2008,07,19,11,15,20.80
2008,07,19,11,16,20.90
2008,07,19,11,17,21.00
2008,07,19,11,18,21.00
2008,07,19,11,19,21.10
2008,07,19,11,20,21.20
2008,07,19,11,21,21.20
2008,07,19,11,22,21.30
2008,07,19,11,23,21.40
2008,07,19,11,24,21.40
2008,07,19,11,25,21.50
2008,07,19,11,26,21.40
2008,07,19,11,27,21.50
2008,07,19,11,28,21.50
2008,07,19,11,29,21.60
2008,07,19,11,30,21.70
2008,07,19,11,31,21.70
2008,07,19,11,32,21.80
2008,07,19,11,33,21.80
2008,07,19,11,34,21.80
2008,07,19,11,35,21.80
2008,07,19,11,36,21.80
2008,07,19,11,37,21.90
2008,07,19,11,38,22.00
2008,07,19,11,39,22.10
2008,07,19,11,40,22.10
2008,07,19,11,41,22.10
2008,07,19,11,42,22.10
2008,07,19,11,43,22.20
2008,07,19,11,44,22.20
2008,07,19,11,45,22.20
2008,07,19,11,46,22.30
2008,07,19,11,47,22.30
2008,07,19,11,48,22.30
2008,07,19,11,49,22.40
2008,07,19,11,50,22.40
2008,07,19,11,51,22.50
2008,07,19,11,52,22.50
2008,07,19,11,53,22.60
2008,07,19,11,54,22.60
2008,07,19,11,55,22.60
2008,07,19,11,56,22.60
2008,07,19,11,57,22.70
2008,07,19,11,58,22.70
2008,07,19,11,59,22.70
2008,07,19,12,00,22.70
2008,07,19,12,01,22.70
2008,07,19,12,02,22.80
2008,07,19,12,03,22.80
2008,07,19,12,04,22.80
2008,07,19,12,05,22.90
2008,07,19,12,06,22.90
2008,07,19,12,07,22.90
2008,07,19,12,08,22.90
2008,07,19,12,09,22.90
2008,07,19,12,10,22.90
2008,07,19,12,11,22.80
2008,07,19,12,12,22.80
2008,07,19,12,13,22.70
2008,07,19,12,14,22.60
2008,07,19,12,15,22.50
2008,07,19,12,16,22.40
2008,07,19,12,17,22.50
2008,07,19,12,18,22.60
2008,07,19,12,19,22.60
2008,07,19,12,20,22.70
2008,07,19,12,21,22.80
2008,07,19,12,22,23.00
2008,07,19,12,23,23.00
2008,07,19,12,24,23.10
2008,07,19,12,25,23.00
2008,07,19,12,26,23.00
2008,07,19,12,27,22.90
2008,07,19,12,28,22.90
2008,07,19,12,29,22.80
2008,07,19,12,30,22.80
2008,07,19,12,31,22.80
2008,07,19,12,32,22.80
2008,07,19,12,33,22.80
2008,07,19,12,34,22.80
2008,07,19,12,35,22.80
2008,07,19,12,36,22.70
2008,07,19,12,37,22.70
2008,07,19,12,38,22.70
2008,07,19,12,39,22.70
2008,07,19,12,40,22.80
2008,07,19,12,41,22.70
2008,07,19,12,42,22.70
2008,07,19,12,43,22.80
2008,07,19,12,44,22.80
2008,07,19,12,45,22.80
2008,07,19,12,46,22.80
2008,07,19,12,47,22.90
2008,07,19,12,48,22.90
2008,07,19,12,49,22.90
2008,07,19,12,50,22.90
2008,07,19,12,51,22.80
2008,07,19,12,52,22.70
2008,07,19,12,53,22.70
2008,07,19,12,54,22.60
2008,07,19,12,55,22.50
2008,07,19,12,56,22.40
2008,07,19,12,57,22.30
2008,07,19,12,58,22.30
2008,07,19,12,59,22.20
2008,07,19,13,00,22.20
2008,07,19,13,01,22.10
2008,07,19,13,02,22.10
2008,07,19,13,03,22.00
2008,07,19,13,04,21.90
2008,07,19,13,05,21.80
2008,07,19,13,06,21.80
2008,07,19,13,07,21.80
2008,07,19,13,08,21.70
2008,07,19,13,09,21.70
2008,07,19,13,10,21.60
2008,07,19,13,11,21.60
2008,07,19,13,12,21.50
2008,07,19,13,13,21.40
2008,07,19,13,14,21.40
2008,07,19,13,15,21.30
2008,07,19,13,16,21.30
2008,07,19,13,17,21.30
2008,07,19,13,18,21.30
2008,07,19,13,19,21.20
2008,07,19,13,20,21.20
2008,07,19,13,21,21.20
2008,07,19,13,22,21.20
2008,07,19,13,23,21.20
2008,07,19,13,24,21.10
2008,07,19,13,25,21.10
2008,07,19,13,26,21.10
2008,07,19,13,27,21.10
2008,07,19,13,28,21.00
2008,07,19,13,29,21.00
2008,07,19,13,30,20.90
2008,07,19,13,31,20.90
2008,07,19,13,32,20.90
2008,07,19,13,33,21.00
2008,07,19,13,34,21.00
2008,07,19,13,35,21.10
2008,07,19,13,36,21.20
2008,07,19,13,37,21.40
2008,07,19,13,38,21.50
2008,07,19,13,39,21.60
2008,07,19,13,40,21.80
2008,07,19,13,41,22.00
2008,07,19,13,42,22.20
2008,07,19,13,43,22.20
2008,07,19,13,44,22.30
2008,07,19,13,45,22.30
2008,07,19,13,46,22.40
2008,07,19,13,47,22.40
2008,07,19,13,48,22.50
2008,07,19,13,49,22.50
2008,07,19,13,50,22.60
2008,07,19,13,51,22.60
2008,07,19,13,52,22.70
2008,07,19,13,53,22.70
2008,07,19,13,54,22.70
2008,07,19,13,55,22.80
2008,07,19,13,56,22.80
2008,07,19,13,57,22.90
2008,07,19,13,58,22.90
2008,07,19,13,59,22.90
2008,07,19,14,00,23.00
2008,07,19,14,01,22.90
2008,07,19,14,02,22.90
2008,07,19,14,03,22.90
2008,07,19,14,04,23.00
2008,07,19,14,05,23.10
2008,07,19,14,06,23.20
2008,07,19,14,07,23.30
2008,07,19,14,08,23.50
2008,07,19,14,09,23.60
2008,07,19,14,10,23.70
2008,07,19,14,11,23.90
2008,07,19,14,12,24.00
2008,07,19,14,13,24.20
2008,07,19,14,14,24.30
2008,07,19,14,15,24.30
2008,07,19,14,16,24.30
2008,07,19,14,17,24.30
2008,07,19,14,18,24.30
2008,07,19,14,19,24.20
2008,07,19,14,20,24.20
2008,07,19,14,21,24.10
2008,07,19,14,22,24.10
2008,07,19,14,23,24.00
2008,07,19,14,24,24.00
2008,07,19,14,25,23.90
2008,07,19,14,26,24.00
2008,07,19,14,27,24.10
2008,07,19,14,28,24.20
2008,07,19,14,29,24.30
2008,07,19,14,30,24.50
2008,07,19,14,31,24.60
2008,07,19,14,32,24.80
2008,07,19,14,33,25.00
2008,07,19,14,34,25.10
2008,07,19,14,35,25.20
2008,07,19,14,36,25.30
2008,07,19,14,37,25.30
2008,07,19,14,38,25.30
2008,07,19,14,39,25.30
2008,07,19,14,40,25.30
2008,07,19,14,41,25.30
2008,07,19,14,42,25.30
2008,07,19,14,43,25.30
2008,07,19,14,44,25.30
2008,07,19,14,45,25.30
2008,07,19,14,46,25.30
2008,07,19,14,47,25.40
2008,07,19,14,48,25.40
2008,07,19,14,49,25.50
2008,07,19,14,50,25.60
2008,07,19,14,51,25.70
2008,07,19,14,52,25.70
2008,07,19,14,53,25.80
2008,07,19,14,54,25.90
2008,07,19,14,55,25.90
2008,07,19,14,56,26.00
2008,07,19,14,57,26.00
2008,07,19,14,58,26.10
2008,07,19,14,59,26.20
2008,07,19,15,00,26.30
2008,07,19,15,01,26.40
2008,07,19,15,02,26.40
2008,07,19,15,03,26.40
2008,07,19,15,04,26.30
2008,07,19,15,05,26.30
2008,07,19,15,06,26.20
2008,07,19,15,07,26.00
2008,07,19,15,08,25.90
2008,07,19,15,09,25.90
2008,07,19,15,10,25.80
2008,07,19,15,11,25.90
2008,07,19,15,12,25.90
2008,07,19,15,13,25.90
2008,07,19,15,14,25.90
2008,07,19,15,15,25.90
2008,07,19,15,16,25.90
2008,07,19,15,17,25.90
2008,07,19,15,18,25.90
2008,07,19,15,19,25.90
2008,07,19,15,20,25.90
2008,07,19,15,21,25.80
2008,07,19,15,22,25.80
2008,07,19,15,23,25.80
2008,07,19,15,24,25.90
2008,07,19,15,25,25.90
2008,07,19,15,26,25.90
2008,07,19,15,27,26.00
2008,07,19,15,28,26.10
2008,07,19,15,29,26.20
2008,07,19,15,30,26.20
2008,07,19,15,31,26.20
2008,07,19,15,32,26.10
2008,07,19,15,33,26.10
2008,07,19,15,34,26.00
2008,07,19,15,35,26.10
2008,07,19,15,36,26.10
2008,07,19,15,37,26.00
2008,07,19,15,38,25.90
2008,07,19,15,39,25.90
2008,07,19,15,40,25.90
2008,07,19,15,41,25.80
2008,07,19,15,42,25.80
2008,07,19,15,43,25.80
2008,07,19,15,44,25.90
2008,07,19,15,45,25.90
2008,07,19,15,46,25.90
2008,07,19,15,47,26.00
2008,07,19,15,48,26.10
2008,07,19,15,49,26.10
2008,07,19,15,50,26.10
2008,07,19,15,51,26.10
2008,07,19,15,52,26.10
2008,07,19,15,53,26.20
2008,07,19,15,54,26.20
2008,07,19,15,55,26.30
2008,07,19,15,56,26.30
2008,07,19,15,57,26.30
2008,07,19,15,58,26.20
2008,07,19,15,59,26.10
2008,07,19,16,00,26.10
2008,07,19,16,01,26.10
2008,07,19,16,02,26.10
2008,07,19,16,03,26.20
2008,07,19,16,04,26.20
2008,07,19,16,05,26.20
2008,07,19,16,06,26.30
2008,07,19,16,07,26.30
2008,07,19,16,08,26.40
2008,07,19,16,09,26.40
2008,07,19,16,10,26.40
2008,07,19,16,11,26.40
2008,07,19,16,12,26.40
2008,07,19,16,13,26.40
2008,07,19,16,14,26.30
2008,07,19,16,15,26.40
2008,07,19,16,16,26.40
2008,07,19,16,17,26.50
2008,07,19,16,18,26.50
2008,07,19,16,19,26.60
2008,07,19,16,20,26.60
2008,07,19,16,21,26.60
2008,07,19,16,22,26.70
2008,07,19,16,23,26.80
2008,07,19,16,24,26.80
2008,07,19,16,25,26.80
2008,07,19,16,26,26.80
2008,07,19,16,27,26.80
2008,07,19,16,28,26.80
2008,07,19,16,29,26.80
2008,07,19,16,30,26.80
2008,07,19,16,31,26.80
2008,07,19,16,32,26.70
2008,07,19,16,33,26.70
2008,07,19,16,34,26.70
2008,07,19,16,35,26.70
2008,07,19,16,36,26.70
2008,07,19,16,37,26.70
2008,07,19,16,38,26.80
2008,07,19,16,39,26.80
2008,07,19,16,40,26.90
2008,07,19,16,41,26.90
2008,07,19,16,42,27.00
2008,07,19,16,43,27.00
2008,07,19,16,44,27.10
2008,07,19,16,45,27.00
2008,07,19,16,46,27.00
2008,07,19,16,47,27.00
2008,07,19,16,48,26.90
2008,07,19,16,49,26.80
2008,07,19,16,50,26.80
2008,07,19,16,51,26.80
2008,07,19,16,52,26.70
2008,07,19,16,53,26.70
2008,07,19,16,54,26.70
2008,07,19,16,55,26.80
2008,07,19,16,56,26.80
2008,07,19,16,57,26.80
2008,07,19,16,58,26.80
2008,07,19,16,59,26.80
2008,07,19,17,00,26.70
2008,07,19,17,01,26.60
2008,07,19,17,02,26.50
2008,07,19,17,03,26.40
2008,07,19,17,04,26.40
2008,07,19,17,05,26.30
2008,07,19,17,06,26.20
2008,07,19,17,07,26.10
2008,07,19,17,08,26.00
2008,07,19,17,09,26.00
2008,07,19,17,10,26.10
2008,07,19,17,11,26.10
2008,07,19,17,12,26.10
2008,07,19,17,13,26.20
2008,07,19,17,14,26.20
2008,07,19,17,15,26.20
2008,07,19,17,16,26.30
2008,07,19,17,17,26.30
2008,07,19,17,18,26.30
2008,07,19,17,19,26.30